STARLINK-1338, 45532

Orbit data source: Space-Track

STARLINK-1338, 45532 is a payload satellite owned by SpaceX/Seattle (US) in LEO that was launched on Wed, 22 Apr 2020 UTC via an FALCON 9 launch vehicle from the Air Force Eastern Test Range (AFETR). Payload-class satellites include a variety of spacecraft equipped with specific instruments for various scientific and technological missions. These include communications satellites like Starlink; space stations such as the ISS; scientific satellites like the Hubble; Earth observation satellites from companies like Planet Labs, Umbra, and HawkEye 360; GPS; miniature CubeSats for education and research; and military/defense satellites.

Loading next visibility...
Identifier
45532, 2020-025B
Orbit
LEO
Country
Flag of USUS
Related business
Manufacturer
SpaceX/Seattle
Mission
Partially operational Commercial Communications
Bus & Motor
STARLINK, Unknown motor
Mass
260 kg wet, ~248 kg dry
Launch date (UTC)
2020-04-22 (6 years ago)
Launch vehicle
FALCON 9
Launch site
Air Force Eastern Test Range (AFETR)
Object type
Payload
Rocket body
Debris
Shape & HBR
Box + 1 Pan, 10.1 m
Radar Cross Section
13.562 m², Large (>1 m²)

Expand to show TLE details & history
Last TLE update: 8 hours ago

TLE from 8 hours ago
0 STARLINK-1338
1 45532U 20025B   26170.56893725  .00308707  00000-0  24433-2 0  9992
2 45532  53.0430 306.2686 0002164 117.7446 242.3790 15.69864835341336
Epoch: 2026-06-19T13:39Z
TLE epoch observation values (Epoch: 2026-06-19T13:39:16.178Z)
Latitude
-0.00002°
Longitude
-166.34486°
Altitude
360.862 km
Speed
7.694 km/s
True Right ascension
20h 25m 04s
True Declination
0° 00' 00"
Sunlit
Object was in full shadow at epoch
Visualization orbit readout
Latitude
Unknown
Longitude
Unknown
Altitude
Unknown
Speed
Unknown
Apparent Right ascension
Unknown
Apparent Declination
Unknown
Sunlit
N/A
Visualization observer readout
Local Sidereal Time
08:10:43
Azimuth
Unknown
Elevation
Unknown
Doppler factor
Unknown
Orbital elements
Apogee altitude
361.022 km
Perigee altitude
358.106 km
Semi-major axis
6,737.701 km
Eccentricity
0.00022
Inclination
53.043°
RAAN
306.2686°
Arg. of periapsis
117.7446°
True anomaly
242.35703°
Mean anomaly
242.379°
Eccentric anomaly
242.36802°
Mean motion
3.92442 °/min
Orbital period
91.73 mins
BSTAR
0.0024433
Loading maneuver chart data...
Computing Atmospheric mass density...

Documentation

Showing up to 5 results
|